Regional Weather Roundup
Issued by NWS Charleston, SC

Current Version | Previous Version | Graphics & Text | Print | Product List | Glossary On
Versions: 1 2 3 4 5 6 7 8 9 10 11 12 13 14 15 16 17 18 19 20 21 22 23 24 25 26 27 28 29 30 31 32 33 34 35 36 37 38 39 40 41 42 43 44 45 46 47 48 49 50
000 ASUS42 KCHS 280910 RWRCHS REGIONAL WEATHER ROUNDUP NATIONAL WEATHER SERVICE CHARLESTON SC 500 AM EDT MON JUL 28 2014 NOTE: "FAIR" INDICATES FEW OR NO CLOUDS BELOW 12,000 FEET WITH NO SIGNIFICANT WEATHER AND/OR OBSTRUCTIONS TO VISIBILITY. NOT ALL STATIONS ARE QUALITY CONTROLLED BY THE NATIONAL WEATHER SERVICE. USE DATA WITH CAUTION...ESPECIALLY DEWPOINT OBSERVATIONS. SCZ027-030-031-034>040-042>050-281000- ...SOUTH CAROLINA... CITY SKY/WX TMP DP RH WIND PRES REMARKS N CHARLESTON CLOUDY 83 73 72 W9 29.89R WATERFRONT PRK N/A 82 N/A N/A SW6 N/A FORT JOHNSON NOT AVBL MOUNT PLEASANT FAIR 84 75 74 SW6 29.88S HX 92 JOHNS ISLAND SUNNY 82 72 69 CALM 29.89S PINOPOLIS N/A 82 73 74 SW10 29.80R MONCKS CORNER N/A 81 75 83 SW6 29.87S SUMMERVILLE NOT AVBL BEAUFORT MCAS MOCLDY 82 73 74 W10 29.91R BEAUFORT ARPT FAIR 82 73 74 W9 29.90S HILTON HEAD IS MOCLDY 82 75 78 SW8 29.93R GEORGETOWN NOT AVBL WALTERBORO PTSUNNY 81 75 83 SW7 29.90S ORANGEBURG CLOUDY 79 73 82 SW9 29.87S BARNWELL FAIR 81 73 78 W8 29.89S AIKEN FAIR 81 73 78 SW9 29.90F MANNING FAIR 82 75 78 SW6 29.86S KINGSTREE NOT AVBL COLUMBIA CLOUDY 84 71 65 SW6 29.84S SUMTER CLOUDY 81 74 78 SW12 29.82F FLORENCE CLOUDY 81 73 76 SW8 29.82S MYRTLE BEACH MOCLDY 82 72 69 SW9G17 29.83S N MYRTLE BEACH MOCLDY 83 72 69 W9 29.82R $$ GAZ063-065-086>088-099>101-113>116-118-119-134-136>141-150-281000- ...GEORGIA... CITY SKY/WX TMP DP RH WIND PRES REMARKS SAVANNAH ARPT MOCLDY 82 73 74 W8 29.93R HUNTER AAF MOCLDY 80 75 85 SW8 29.91R FORT STEWART PTCLDY 80 75 84 SW7 29.93R STATESBORO NOT AVBL SYLVANIA PTSUNNY 80 76 89 W3 29.92S CLAXTON FAIR 81 79 94 W6 29.94R THOMSON CLOUDY 81 78 88 SW6 29.94S AUGUSTA-BUSH CLOUDY 82 72 71 W8 29.88S AUGUSTA-DANIEL CLOUDY 83 72 69 W6 29.89F SWAINSBORO FAIR 81 79 94 W7 29.94S VIDALIA N/A 81 77 89 W6 29.95S ALMA CLEAR 79 75 87 SW6 29.96R WAYCROSS CLEAR 81 79 94 SW6 29.96S HX 91 JESUP NOT AVBL BRUNSWICK PTCLDY 81 75 83 SW8 29.96S SAINT SIMONS MOCLDY 80 76 87 W8 29.96R $$ SCZ027-028-034-036>038-045-046-048>050-GAZ119-141-281000- ...LAKE AND SUPPLEMENTAL COASTAL OBSERVATIONS... STATION/POSITION TIME TEMP WIND PRES WAVE SWELL AIR SEA DIR/SP/G HT/PER HT/PER/DIR (UTC) (F) (DEG/KT/KT) (MB) (FT/S) (FT/S/D) UPR LAKE MARION NOT AVBL WINYAH BAY 0800 83 230/ 8 1010.0F LAKE MURRAY 0800 84 250/ 10/ 15 1010.2S ACE BASIN NERRS 0800 83 250/ 3 1012.0S FORT PULASKI 0900 82 240/ 6/ 9 1013.5R SAPELO ISLAND 0800 82 240/ 12 1014.0S $$ ANZ835-935-AMZ111-154-330-350-352-354-374-450-454-472-281000- ...C-MAN AND BUOY OBSERVATIONS... STATION/POSITION TIME TEMP WIND PRES WAVE SWELL AIR SEA DIR/SP/G HT/PER HT/PER/DIR (UTC) (F) (DEG/KT/KT) (MB) (FT/S) (FT/S/D) FOLLY BEACH CMAN 0800 83 240/ 8/ 12 1012.2F BUOY 41004 0900 85 83 230/ 16/ 19 1011.0R 5/ 6 2/10 BUOY 41008 0900 84 84 260/ 17/ 21 1013.4F 4/ 4 2/160/10 5E ST. MARYS GA 0900 84 N/A 2/10 FRYING PAN BUOY NOT AVBL BUOY 41025 0900 VRB 21/ 25 1007.2F 5/ 6 2/140/ 9 CAPE LOOKOUT NC 0800 82 220/ 14/ 21 1008.2F BUOY 41002 0814 81 80 240/ 16/ 19 1014.4R 6/ 6 2/140/ 9 BUOY 41010 0900 85 84 230/ 17/ 19 1016.0R 4/ 9 2/140/ 9 BUOY 41012 NOT AVBL ST AUGUSTINE FL 0900 79 250/ 7/ 9 1016.2R CAPERS NEARSHORE 0800 85 250/ 16/ 19 N/A FRIPP NEARSHORE NOT AVBL $$

USA.gov is the U.S. government's official web portal to all federal, state and local government web resources and services.